| time (UTC) | temp F | wind direction | speed knots | gust knots | rain 1hr in | rain 24hr in | rain mn in | humidity % | barometer mb |
| 20260508005237 | 53 | 252 | 8.7 | 11.3 | 0.00 | 0.00 | 0.00 | 51 | 1005.3 |
| 20260508004737 | 53 | 251 | 9.6 | 13.0 | 0.00 | 0.00 | 0.00 | 50 | 1005.3 |
| 20260508004237 | 53 | 253 | 11.3 | 13.0 | 0.00 | 0.00 | 0.00 | 51 | 1005.3 |
| 20260508003737 | 53 | 254 | 9.6 | 12.2 | 0.00 | 0.00 | 0.00 | 52 | 1005.2 |
| 20260508003237 | 54 | 256 | 8.7 | 13.0 | 0.00 | 0.00 | 0.00 | 51 | 1005.1 |
| 20260508002736 | 54 | 253 | 8.7 | 12.2 | 0.00 | 0.00 | 0.00 | 52 | 1005.1 |
| 20260508002237 | 54 | 254 | 9.6 | 13.9 | 0.00 | 0.00 | 0.00 | 50 | 1005.0 |
| 20260508001737 | 54 | 250 | 9.6 | 13.0 | 0.00 | 0.00 | 0.00 | 50 | |
| 20260508001237 | 54 | 253 | 11.3 | 13.9 | 0.00 | 0.00 | 0.00 | 49 | |
| 20260508000737 | 54 | 251 | 10.4 | 13.0 | 0.00 | 0.00 | 0.00 | 50 | 1004.8 |
| 20260508000237 | 54 | 249 | 10.4 | 15.6 | 0.00 | 0.00 | 0.00 | 50 | 1004.8 |
| 20260507235737 | 55 | 252 | 7.8 | 12.2 | 0.00 | 0.00 | 0.00 | 50 | 1004.9 |
| 20260507235237 | 55 | 253 | 9.6 | 13.0 | 0.00 | 0.00 | 0.00 | 49 | |
| 20260507234736 | 55 | 255 | 10.4 | 13.9 | 0.00 | 0.00 | 0.00 | 48 | 1004.8 |
| 20260507234237 | 56 | 254 | 10.4 | 13.9 | 0.00 | 0.00 | 0.00 | 45 | |
| 20260507233737 | 56 | 256 | 12.2 | 15.6 | 0.00 | 0.00 | 0.00 | 43 | 1004.6 |
| 20260507233237 | 56 | 257 | 12.2 | 16.5 | 0.00 | 0.00 | 0.00 | 43 | 1004.5 |
| 20260507232736 | 56 | 260 | 12.2 | 15.6 | 0.00 | 0.00 | 0.00 | 45 | 1004.5 |
| 20260507232236 | 57 | 257 | 11.3 | 16.5 | 0.00 | 0.00 | 0.00 | 43 | 1004.4 |
| 20260507231736 | 57 | 256 | 11.3 | 15.6 | 0.00 | 0.00 | 0.00 | 43 | 1004.4 |
| 20260507231237 | 57 | 258 | 12.2 | 16.5 | 0.00 | 0.00 | 0.00 | 44 | 1004.4 |
| 20260507230736 | 57 | 262 | 12.2 | 16.5 | 0.00 | 0.00 | 0.00 | 43 | 1004.4 |
| 20260507230237 | 57 | 261 | 13.0 | 20.0 | 0.00 | 0.00 | 0.00 | 41 | |
| 20260507225736 | 57 | 263 | 13.0 | 19.1 | 0.00 | 0.00 | 0.00 | 43 | |
| 20260507225237 | 57 | 262 | 12.2 | 15.6 | 0.00 | 0.00 | 0.00 | 45 | 1004.3 |
| 20260507224736 | 57 | 260 | 9.6 | 17.4 | 0.00 | 0.00 | 0.00 | 45 | 1004.2 |
| 20260507224236 | 57 | 256 | 12.2 | 15.6 | 0.00 | 0.00 | 0.00 | 43 | 1004.2 |
| 20260507223736 | 57 | 254 | 11.3 | 14.8 | 0.00 | 0.00 | 0.00 | 48 | 1004.1 |
| 20260507223236 | 57 | 246 | 9.6 | 13.0 | 0.00 | 0.00 | 0.00 | 48 | 1004.1 |
| 20260507222740 | 58 | 261 | 10.4 | 14.8 | 0.00 | 0.00 | 0.00 | 43 | 1004.0 |
| 20260507222236 | 58 | 261 | 9.6 | 14.8 | 0.00 | 0.00 | 0.00 | 43 | 1004.0 |
| 20260507221736 | 57 | 260 | 9.6 | 13.0 | 0.00 | 0.00 | 0.00 | 46 | |
| 20260507221237 | 58 | 247 | 10.4 | 14.8 | 0.00 | 0.00 | 0.00 | 45 | |
| 20260507220736 | 59 | 256 | 11.3 | 13.9 | 0.00 | 0.00 | 0.00 | 43 | 1003.9 |
| 20260507220236 | 60 | 274 | 8.7 | 13.0 | 0.00 | 0.00 | 0.00 | 39 | 1003.8 |
| 20260507215736 | 59 | 267 | 10.4 | 19.1 | 0.00 | 0.00 | 0.00 | 39 | 1003.8 |
| 20260507215236 | 59 | 266 | 10.4 | 14.8 | 0.00 | 0.00 | 0.00 | 43 | |
| 20260507214736 | 60 | 266 | 9.6 | 14.8 | 0.00 | 0.00 | 0.00 | 41 | |
| 20260507214236 | 59 | 265 | 11.3 | 15.6 | 0.00 | 0.00 | 0.00 | 40 | 1003.7 |
| 20260507213736 | 59 | 258 | 11.3 | 16.5 | 0.00 | 0.00 | 0.00 | 43 | |
| 20260507213236 | 60 | 263 | 11.3 | 16.5 | 0.00 | 0.00 | 0.00 | 41 | 1003.7 |
| 20260507212736 | 60 | 270 | 10.4 | 15.6 | 0.00 | 0.00 | 0.00 | 42 | 1003.7 |
| 20260507212136 | 60 | 260 | 10.4 | 15.6 | 0.00 | 0.00 | 0.00 | 39 | 1003.7 |
| 20260507211636 | 59 | 252 | 13.0 | 18.2 | 0.00 | 0.00 | 0.00 | 45 | |
| 20260507211136 | 59 | 256 | 10.4 | 14.8 | 0.00 | 0.00 | 0.00 | 45 | 1003.6 |
| 20260507210636 | 60 | 256 | 10.4 | 15.6 | 0.00 | 0.00 | 0.00 | 44 | 1003.8 |
| 20260507210136 | 60 | 247 | 11.3 | 13.9 | 0.00 | 0.00 | 0.00 | 43 | 1003.8 |
| 20260507205636 | 60 | 228 | 7.0 | 10.4 | 0.00 | 0.00 | 0.00 | 45 | 1003.8 |
| 20260507205136 | 60 | 242 | 7.8 | 11.3 | 0.00 | 0.00 | 0.00 | 45 | 1003.6 |
| 20260507204636 | 61 | 268 | 9.6 | 13.0 | 0.00 | 0.00 | 0.00 | 38 | 1003.7 |
| 20260507204135 | 61 | 271 | 7.8 | 14.8 | 0.00 | 0.00 | 0.00 | 37 | 1003.7 |
| 20260507203636 | 61 | 257 | 11.3 | 14.8 | 0.00 | 0.00 | 0.00 | 40 | 1003.6 |
| 20260507203136 | 61 | 253 | 11.3 | 13.9 | 0.00 | 0.00 | 0.00 | 38 | 1003.6 |
| 20260507202636 | 62 | 253 | 10.4 | 13.9 | 0.00 | 0.00 | 0.00 | 38 | 1003.6 |
| 20260507202136 | 62 | 261 | 10.4 | 14.8 | 0.00 | 0.00 | 0.00 | 37 | 1003.5 |
| 20260507201636 | 61 | 250 | 13.0 | 20.9 | 0.00 | 0.00 | 0.00 | 37 | 1003.6 |
| 20260507201136 | 61 | 256 | 13.0 | 17.4 | 0.00 | 0.00 | 0.00 | 42 | 1003.5 |
| 20260507200636 | 62 | 263 | 11.3 | 14.8 | 0.00 | 0.00 | 0.00 | 40 | |
| 20260507200136 | 61 | 267 | 10.4 | 18.2 | 0.00 | 0.00 | 0.00 | 39 | 1003.7 |
| 20260507195636 | 61 | 262 | 13.0 | 17.4 | 0.00 | 0.00 | 0.00 | 40 | |
| 20260507195136 | 62 | 262 | 13.0 | 18.2 | 0.00 | 0.00 | 0.00 | 39 | 1003.8 |
| 20260507194636 | 62 | 258 | 12.2 | 17.4 | 0.00 | 0.00 | 0.00 | 37 | 1003.6 |
| 20260507194136 | 62 | 261 | 12.2 | 17.4 | 0.00 | 0.00 | 0.00 | 37 | 1003.7 |
| 20260507193636 | 61 | 256 | 14.8 | 21.7 | 0.00 | 0.00 | 0.00 | 41 | |
| 20260507193136 | 62 | 262 | 12.2 | 16.5 | 0.00 | 0.00 | 0.00 | 38 | 1003.8 |
| 20260507192636 | 62 | 267 | 13.0 | 19.1 | 0.00 | 0.00 | 0.00 | 38 | 1003.8 |
| 20260507192136 | 62 | 263 | 12.2 | 18.2 | 0.00 | 0.00 | 0.00 | 39 | |
| 20260507191636 | 61 | 266 | 13.0 | 20.9 | 0.00 | 0.00 | 0.00 | 38 | 1003.9 |
| 20260507191135 | 62 | 275 | 10.4 | 15.6 | 0.00 | 0.00 | 0.00 | 41 | 1003.9 |
| 20260507190635 | 61 | 259 | 10.4 | 16.5 | 0.00 | 0.00 | 0.00 | 41 | 1004.0 |
| 20260507190036 | 61 | 250 | 13.9 | 18.2 | 0.00 | 0.00 | 0.00 | 41 | 1003.8 |
| 20260507185536 | 61 | 259 | 11.3 | 15.6 | 0.00 | 0.00 | 0.00 | 43 | 1004.0 |
| 20260507185035 | 61 | 229 | 9.6 | 14.8 | 0.00 | 0.00 | 0.00 | 45 | 1004.0 |
| 20260507184535 | 62 | 253 | 11.3 | 13.9 | 0.00 | 0.00 | 0.00 | 41 | |
| 20260507184036 | 62 | 245 | 9.6 | 16.5 | 0.00 | 0.00 | 0.00 | 42 | 1004.1 |
| 20260507183537 | 62 | 231 | 7.8 | 13.0 | 0.00 | 0.00 | 0.00 | 49 | 1004.2 |
| 20260507183035 | 61 | 245 | 8.7 | 13.0 | 0.00 | 0.00 | 0.00 | 48 | 1004.1 |
| 20260507182535 | 61 | 239 | 7.8 | 13.9 | 0.00 | 0.00 | 0.00 | 49 | 1004.2 |
| 20260507182035 | 61 | 247 | 8.7 | 13.0 | 0.00 | 0.00 | 0.00 | 49 | |
| 20260507181535 | 60 | 244 | 6.1 | 10.4 | 0.00 | 0.00 | 0.00 | 53 | 1004.4 |
| 20260507181036 | 58 | 131 | 7.8 | 10.4 | 0.00 | 0.00 | 0.00 | 59 | 1004.5 |
| 20260507180535 | 58 | 160 | 6.1 | 11.3 | 0.00 | 0.00 | 0.00 | 61 | 1004.6 |
| 20260507180035 | 58 | 147 | 6.1 | 12.2 | 0.00 | 0.00 | 0.00 | 62 | 1004.5 |
| 20260507175536 | 57 | 127 | 10.4 | 14.8 | 0.00 | 0.00 | 0.00 | 64 | 1004.4 |
| 20260507175035 | 59 | 126 | 10.4 | 15.6 | 0.00 | 0.00 | 0.00 | 61 | 1004.3 |
| 20260507174535 | 60 | 150 | 7.0 | 10.4 | 0.00 | 0.00 | 0.00 | 59 | 1004.4 |
| 20260507174035 | 63 | 155 | 5.2 | 9.6 | 0.00 | 0.00 | 0.00 | 54 | 1004.4 |
| 20260507173535 | 62 | 196 | 5.2 | 9.6 | 0.00 | 0.00 | 0.00 | 52 | |
| 20260507173035 | 61 | 213 | 3.5 | 14.8 | 0.00 | 0.00 | 0.00 | 59 | |
| 20260507172536 | 61 | 236 | 10.4 | 15.6 | 0.00 | 0.00 | 0.00 | 55 | 1004.5 |
| 20260507172035 | 62 | 224 | 7.0 | 12.2 | 0.00 | 0.00 | 0.00 | 57 | 1004.5 |
| 20260507171538 | 61 | 226 | 8.7 | 14.8 | 0.00 | 0.00 | 0.00 | 58 | 1004.6 |
| 20260507171035 | 59 | 224 | 10.4 | 14.8 | 0.00 | 0.00 | 0.00 | 61 | 1004.6 |
| 20260507170535 | 57 | 184 | 2.6 | 8.7 | 0.00 | 0.00 | 0.00 | 66 | 1004.8 |
| 20260507170035 | 58 | 161 | 7.0 | 9.6 | 0.00 | 0.00 | 0.00 | 65 | |
| 20260507165535 | 58 | 163 | 5.2 | 9.6 | 0.00 | 0.00 | 0.00 | 64 | 1004.8 |
| 20260507165035 | 58 | 166 | 5.2 | 8.7 | 0.00 | 0.00 | 0.00 | 65 | 1004.9 |
| 20260507164535 | 58 | 127 | 6.1 | 8.7 | 0.00 | 0.00 | 0.00 | 64 | 1005.0 |
| 20260507164035 | 58 | 144 | 7.0 | 9.6 | 0.00 | 0.00 | 0.00 | 63 | |
| 20260507163535 | 58 | 145 | 6.1 | 11.3 | 0.00 | 0.00 | 0.00 | 65 | 1005.0 |
| 20260507163035 | 57 | 137 | 7.8 | 10.4 | 0.00 | 0.00 | 0.00 | 67 | |
| 20260507162535 | 57 | 134 | 7.0 | 9.6 | 0.00 | 0.00 | 0.00 | 66 | 1005.2 |
| 20260507162035 | 57 | 130 | 7.0 | 9.6 | 0.00 | 0.00 | 0.00 | 66 | 1005.1 |
| 20260507161536 | 57 | 130 | 7.0 | 10.4 | 0.00 | 0.00 | 0.00 | 66 | 1005.2 |
| 20260507161035 | 58 | 130 | 7.0 | 10.4 | 0.00 | 0.00 | 0.00 | 65 | 1005.3 |
| 20260507160435 | 56 | 121 | 7.0 | 10.4 | 0.00 | 0.00 | 0.00 | 68 | 1005.3 |
| 20260507155936 | 56 | 125 | 7.8 | 11.3 | 0.00 | 0.00 | 0.00 | 70 | 1005.3 |
| 20260507155435 | 55 | 112 | 6.1 | 8.7 | 0.00 | 0.00 | 0.00 | 69 | 1005.4 |
| 20260507154935 | 55 | 110 | 6.1 | 8.7 | 0.00 | 0.00 | 0.00 | 68 | 1005.5 |
| 20260507154435 | 54 | 120 | 6.1 | 9.6 | 0.00 | 0.00 | 0.00 | 70 | 1005.6 |
| 20260507153935 | 54 | 133 | 5.2 | 9.6 | 0.00 | 0.00 | 0.00 | 70 | 1005.7 |
| 20260507153435 | 53 | 136 | 7.0 | 10.4 | 0.00 | 0.00 | 0.00 | 70 | 1005.7 |
| 20260507152935 | 54 | 134 | 7.0 | 9.6 | 0.00 | 0.00 | 0.00 | 69 | |
| 20260507152435 | 54 | 131 | 7.8 | 11.3 | 0.00 | 0.00 | 0.00 | 67 | |
| 20260507151935 | 56 | 132 | 7.8 | 10.4 | 0.00 | 0.00 | 0.00 | 64 | 1005.8 |
| 20260507151435 | 57 | 147 | 7.0 | 10.4 | 0.00 | 0.00 | 0.00 | 65 | 1005.9 |
| 20260507150935 | 56 | 150 | 7.8 | 10.4 | 0.00 | 0.00 | 0.00 | 67 | 1006.0 |
| 20260507150434 | 56 | 148 | 7.0 | 9.6 | 0.00 | 0.00 | 0.00 | 67 | 1006.1 |
| 20260507145935 | 55 | 156 | 6.1 | 11.3 | 0.00 | 0.00 | 0.00 | 69 | 1006.0 |
| 20260507145435 | 55 | 143 | 7.0 | 8.7 | 0.00 | 0.00 | 0.00 | 68 | 1006.0 |
| 20260507144935 | 55 | 141 | 7.0 | 9.6 | 0.00 | 0.00 | 0.00 | 66 | 1006.0 |
| 20260507144435 | 55 | 159 | 7.0 | 9.6 | 0.00 | 0.00 | 0.00 | 68 | 1006.0 |
| 20260507143835 | 55 | 146 | 7.0 | 9.6 | 0.00 | 0.00 | 0.00 | 67 | 1006.0 |
| 20260507143335 | 56 | 144 | 5.2 | 7.8 | 0.00 | 0.00 | 0.00 | 69 | 1005.9 |
| 20260507142834 | 55 | 165 | 6.1 | 8.7 | 0.00 | 0.00 | 0.00 | 69 | 1006.0 |
| 20260507142335 | 55 | 130 | 4.3 | 7.8 | 0.00 | 0.00 | 0.00 | 68 | 1005.9 |
| 20260507141835 | 56 | 156 | 4.3 | 7.0 | 0.00 | 0.00 | 0.00 | 69 | 1005.9 |
| 20260507141335 | 55 | 127 | 4.3 | 7.0 | 0.00 | 0.00 | 0.00 | 70 | 1005.9 |
| 20260507140835 | 55 | 158 | 6.1 | 7.8 | 0.00 | 0.00 | 0.00 | 67 | 1006.0 |
| 20260507140335 | 56 | 202 | 4.3 | 6.1 | 0.00 | 0.00 | 0.00 | 68 | 1005.9 |
| 20260507135834 | 55 | 229 | 3.5 | 6.1 | 0.00 | 0.00 | 0.00 | 69 | 1006.0 |
| 20260507135335 | 55 | 238 | 5.2 | 7.0 | 0.00 | 0.00 | 0.00 | 68 | 1006.0 |
| 20260507134835 | 55 | 220 | 4.3 | 6.1 | 0.00 | 0.00 | 0.00 | 70 | 1006.1 |
| 20260507134334 | 54 | 235 | 5.2 | 7.8 | 0.00 | 0.00 | 0.00 | 72 | 1006.1 |
| 20260507133835 | 54 | 231 | 6.1 | 8.7 | 0.00 | 0.00 | 0.00 | 73 | 1006.2 |
| 20260507133334 | 53 | 231 | 7.0 | 9.6 | 0.00 | 0.00 | 0.00 | 74 | 1006.3 |
| 20260507132835 | 53 | 240 | 7.8 | 10.4 | 0.00 | 0.00 | 0.00 | 75 | 1006.3 |
| 20260507132334 | 53 | 237 | 8.7 | 11.3 | 0.00 | 0.00 | 0.00 | 76 | 1006.3 |
| 20260507131835 | 53 | 249 | 9.6 | 13.0 | 0.00 | 0.00 | 0.00 | 76 | |
| 20260507131335 | 53 | 246 | 8.7 | 12.2 | 0.00 | 0.00 | 0.00 | 77 | 1006.3 |
| 20260507130834 | 52 | 248 | 9.6 | 13.9 | 0.00 | 0.00 | 0.00 | 78 | 1006.3 |
| 20260507130334 | 52 | 252 | 10.4 | 13.0 | 0.00 | 0.00 | 0.00 | 79 | 1006.4 |
| 20260507125834 | 52 | 246 | 9.6 | 13.0 | 0.00 | 0.00 | 0.00 | 80 | 1006.3 |
| 20260507125335 | 52 | 240 | 10.4 | 12.2 | 0.00 | 0.00 | 0.00 | 80 | 1006.3 |
| 20260507124834 | 52 | 242 | 6.1 | 9.6 | 0.00 | 0.00 | 0.00 | 80 | 1006.4 |
| 20260507124335 | 52 | 232 | 6.1 | 9.6 | 0.00 | 0.00 | 0.00 | 80 | 1006.4 |
| 20260507123834 | 52 | 236 | 7.0 | 9.6 | 0.00 | 0.00 | 0.00 | 81 | |
| 20260507123334 | 52 | 233 | 4.3 | 7.0 | 0.00 | 0.00 | 0.00 | 82 | 1006.4 |
| 20260507122835 | 51 | 238 | 6.1 | 9.6 | 0.00 | 0.00 | 0.00 | 83 | 1006.6 |
| 20260507122334 | 51 | 246 | 6.1 | 8.7 | 0.00 | 0.00 | 0.00 | 84 | 1006.5 |
| 20260507121834 | 51 | 244 | 6.1 | 8.7 | 0.00 | 0.00 | 0.00 | 84 | 1006.6 |
| 20260507121334 | 51 | 238 | 6.1 | 7.8 | 0.00 | 0.00 | 0.00 | 85 | 1006.5 |
| 20260507120835 | 50 | 241 | 5.2 | 7.0 | 0.00 | 0.00 | 0.00 | 86 | 1006.5 |
| 20260507120334 | 49 | 248 | 5.2 | 7.0 | 0.00 | 0.00 | 0.00 | 86 | 1006.5 |
| 20260507115834 | 49 | 246 | 6.1 | 7.0 | 0.00 | 0.00 | 0.00 | 87 | 1006.7 |
| 20260507115334 | 49 | 250 | 5.2 | 7.0 | 0.00 | 0.00 | 0.00 | 87 | 1006.5 |
| 20260507114834 | 49 | 251 | 5.2 | 7.0 | 0.00 | 0.00 | 0.00 | 87 | |
| 20260507114334 | 49 | 270 | 5.2 | 7.0 | 0.00 | 0.00 | 0.00 | 87 | |
| 20260507113835 | 49 | 269 | 4.3 | 6.1 | 0.00 | 0.00 | 0.00 | 88 | 1006.3 |
| 20260507113335 | 48 | 283 | 4.3 | 6.1 | 0.00 | 0.00 | 0.00 | 87 | |
| 20260507112834 | 48 | 289 | 3.5 | 4.3 | 0.00 | 0.00 | 0.00 | 88 | |
| 20260507112334 | 48 | 297 | 4.3 | 5.2 | 0.00 | 0.00 | 0.00 | 87 | |
| 20260507111835 | 48 | 289 | 4.3 | 4.3 | 0.00 | 0.00 | 0.00 | 87 | 1006.5 |
| 20260507111334 | 48 | 294 | 3.5 | 4.3 | 0.00 | 0.00 | 0.00 | 87 | 1006.6 |
| 20260507110834 | 48 | 297 | 3.5 | 6.1 | 0.00 | 0.00 | 0.00 | 87 | 1006.5 |
| 20260507110334 | 48 | 305 | 5.2 | 7.8 | 0.00 | 0.00 | 0.00 | 87 | 1006.4 |
| 20260507105834 | 48 | 298 | 6.1 | 8.7 | 0.00 | 0.00 | 0.00 | 87 | 1006.1 |
| 20260507105334 | 48 | 296 | 7.0 | 8.7 | 0.00 | 0.00 | 0.00 | 87 | 1006.1 |
| 20260507104834 | 48 | 289 | 7.8 | 9.6 | 0.00 | 0.00 | 0.00 | 87 | 1006.1 |
| 20260507104334 | 48 | 288 | 7.0 | 11.3 | 0.00 | 0.00 | 0.00 | 88 | 1005.9 |
| 20260507103834 | 48 | 289 | 7.0 | 9.6 | 0.00 | 0.00 | 0.00 | 88 | 1005.9 |
| 20260507103334 | 48 | 277 | 7.0 | 9.6 | 0.00 | 0.00 | 0.00 | 88 | 1006.3 |
| 20260507102834 | 48 | 278 | 7.8 | 10.4 | 0.00 | 0.00 | 0.00 | 88 | 1006.2 |
| 20260507102334 | 48 | 284 | 7.0 | 10.4 | 0.00 | 0.00 | 0.00 | 88 | 1006.0 |
| 20260507101834 | 48 | 280 | 6.1 | 8.7 | 0.00 | 0.00 | 0.00 | 88 | 1005.9 |
| 20260507101334 | 48 | 274 | 6.1 | 11.3 | 0.00 | 0.00 | 0.00 | 88 | 1005.9 |
| 20260507100834 | 48 | 261 | 8.7 | 10.4 | 0.00 | 0.00 | 0.00 | 88 | 1006.2 |
| 20260507100334 | 48 | 258 | 7.8 | 11.3 | 0.00 | 0.00 | 0.00 | 88 | 1006.1 |
| 20260507095834 | 48 | 263 | 7.0 | 10.4 | 0.00 | 0.00 | 0.00 | 88 | 1005.8 |
| 20260507095334 | 48 | 256 | 7.8 | 11.3 | 0.00 | 0.00 | 0.00 | 88 | 1006.0 |
| 20260507094834 | 48 | 252 | 9.6 | 11.3 | 0.00 | 0.00 | 0.00 | 88 | 1005.9 |
| 20260507094334 | 48 | 250 | 7.8 | 12.2 | 0.00 | 0.00 | 0.00 | 88 | 1005.8 |
| 20260507093834 | 48 | 255 | 9.6 | 13.9 | 0.00 | 0.00 | 0.00 | 88 | 1005.8 |
| 20260507093334 | 48 | 250 | 12.2 | 14.8 | 0.00 | 0.00 | 0.00 | 88 | 1006.0 |
| 20260507092834 | 48 | 253 | 11.3 | 13.0 | 0.00 | 0.00 | 0.00 | 88 | 1005.8 |
| 20260507092334 | 48 | 251 | 10.4 | 13.0 | 0.00 | 0.00 | 0.00 | 88 | |
| 20260507091834 | 48 | 252 | 11.3 | 13.9 | 0.00 | 0.00 | 0.00 | 88 | 1005.7 |
| 20260507091334 | 48 | 251 | 11.3 | 13.9 | 0.00 | 0.00 | 0.00 | 88 | |
| 20260507090834 | 48 | 260 | 8.7 | 12.2 | 0.00 | 0.00 | 0.00 | 88 | 1005.6 |
| 20260507090334 | 48 | 271 | 10.4 | 13.9 | 0.00 | 0.00 | 0.00 | 87 | 1005.3 |
| 20260507085834 | 48 | 273 | 9.6 | 14.8 | 0.00 | 0.00 | 0.00 | 87 | |
| 20260507085334 | 49 | 267 | 9.6 | 13.9 | 0.00 | 0.00 | 0.00 | 87 | |
| 20260507084833 | 49 | 261 | 9.6 | 15.6 | 0.00 | 0.00 | 0.00 | 87 | |
| 20260507084334 | 49 | 272 | 10.4 | 14.8 | 0.00 | 0.00 | 0.00 | 87 | 1005.2 |
| 20260507083833 | 49 | 268 | 12.2 | 16.5 | 0.00 | 0.00 | 0.00 | 87 | |
| 20260507083334 | 49 | 270 | 10.4 | 15.6 | 0.00 | 0.00 | 0.00 | 87 | 1005.2 |
| 20260507082834 | 49 | 266 | 10.4 | 13.9 | 0.00 | 0.00 | 0.00 | 87 | 1005.2 |
| 20260507082334 | 49 | 264 | 10.4 | 14.8 | 0.00 | 0.00 | 0.00 | 87 | 1005.3 |
| 20260507081834 | 49 | 260 | 12.2 | 17.4 | 0.00 | 0.00 | 0.00 | 87 | |
| 20260507081334 | 49 | 263 | 10.4 | 15.6 | 0.00 | 0.00 | 0.00 | 87 | |
| 20260507080834 | 50 | 258 | 13.0 | 20.9 | 0.00 | 0.00 | 0.00 | 87 | 1005.1 |
| 20260507080334 | 50 | 256 | 13.9 | 18.2 | 0.00 | 0.00 | 0.00 | 87 | |
| 20260507075834 | 50 | 257 | 12.2 | 15.6 | 0.00 | 0.00 | 0.00 | 87 | |
| 20260507075334 | 50 | 262 | 11.3 | 16.5 | 0.00 | 0.00 | 0.00 | 87 | 1005.0 |
| 20260507074833 | 50 | 262 | 10.4 | 18.2 | 0.00 | 0.00 | 0.00 | 88 | 1004.9 |
| 20260507074333 | 50 | 260 | 11.3 | 18.2 | 0.00 | 0.00 | 0.00 | 88 | 1004.9 |
| 20260507073834 | 50 | 260 | 11.3 | 17.4 | 0.00 | 0.00 | 0.00 | 88 | 1004.7 |
| 20260507073333 | 50 | 265 | 13.0 | 17.4 | 0.00 | 0.00 | 0.00 | 88 | 1004.7 |
| 20260507072833 | 50 | 257 | 12.2 | 20.0 | 0.00 | 0.00 | 0.00 | 88 | 1004.7 |
| 20260507072333 | 50 | 254 | 13.0 | 17.4 | 0.00 | 0.00 | 0.00 | 88 | 1004.9 |
| 20260507071833 | 50 | 251 | 11.3 | 16.5 | 0.00 | 0.00 | 0.00 | 88 | 1004.9 |
| 20260507071334 | 50 | 253 | 12.2 | 19.1 | 0.00 | 0.00 | 0.00 | 89 | 1004.7 |
| 20260507070833 | 50 | 251 | 13.9 | 18.2 | 0.00 | 0.00 | 0.00 | 89 | 1004.5 |
| 20260507070333 | 50 | 251 | 14.8 | 20.9 | 0.00 | 0.00 | 0.00 | 90 | 1004.5 |
| 20260507065833 | 50 | 255 | 15.6 | 20.9 | 0.00 | 0.00 | 0.00 | 90 | |
| 20260507065333 | 50 | 249 | 13.9 | 20.9 | 0.00 | 0.00 | 0.00 | 90 | 1004.7 |
| 20260507064834 | 50 | 250 | 13.0 | 16.5 | 0.00 | 0.00 | 0.00 | 90 | |
| 20260507064333 | 50 | 252 | 12.2 | 16.5 | 0.00 | 0.00 | 0.00 | 91 | |
| 20260507063833 | 50 | 239 | 10.4 | 15.6 | 0.00 | 0.00 | 0.00 | 91 | 1004.3 |
| 20260507063333 | 50 | 240 | 11.3 | 15.6 | 0.00 | 0.00 | 0.00 | 91 | 1004.4 |
| 20260507062833 | 50 | 247 | 11.3 | 15.6 | 0.00 | 0.00 | 0.00 | 91 | 1004.3 |
| 20260507062333 | 50 | 251 | 12.2 | 16.5 | 0.00 | 0.00 | 0.00 | 92 | |
| 20260507061833 | 50 | 248 | 10.4 | 15.6 | 0.00 | 0.00 | 0.00 | 92 | 1004.4 |
| 20260507061333 | 50 | 242 | 11.3 | 14.8 | 0.00 | 0.00 | 0.00 | 92 | |
| 20260507060833 | 50 | 249 | 11.3 | 15.6 | 0.00 | 0.00 | 0.00 | 92 | 1004.4 |
| 20260507060333 | 50 | 254 | 13.9 | 18.2 | 0.00 | 0.00 | 0.00 | 93 | 1004.4 |
| 20260507055833 | 50 | 253 | 13.9 | 17.4 | 0.00 | 0.00 | 0.00 | 93 | 1004.5 |
| 20260507055333 | 50 | 244 | 12.2 | 14.8 | 0.00 | 0.00 | 0.00 | 93 | 1004.6 |
| 20260507054833 | 50 | 231 | 8.7 | 14.8 | 0.00 | 0.00 | 0.00 | 93 | |
| 20260507054333 | 50 | 233 | 10.4 | 14.8 | 0.00 | 0.00 | 0.00 | 93 | |
| 20260507053833 | 51 | 229 | 10.4 | 16.5 | 0.00 | 0.00 | 0.00 | 94 | |
| 20260507053333 | 51 | 219 | 7.8 | 13.0 | 0.00 | 0.00 | 0.00 | 94 | 1004.8 |
| 20260507052833 | 51 | 220 | 6.1 | 13.0 | 0.00 | 0.00 | 0.00 | 94 | 1004.5 |
| 20260507052333 | 51 | 246 | 11.3 | 18.2 | 0.00 | 0.00 | 0.00 | 94 | 1004.6 |
| 20260507051833 | 51 | 246 | 13.9 | 21.7 | 0.00 | 0.00 | 0.00 | 95 | 1004.7 |
| 20260507051341 | 51 | 242 | 15.6 | 21.7 | 0.00 | 0.00 | 0.00 | 95 | |
| 20260507050833 | 51 | 236 | 11.3 | 16.5 | 0.00 | 0.00 | 0.00 | 94 | 1004.7 |
| 20260507050333 | 51 | 240 | 10.4 | 14.8 | 0.00 | 0.00 | 0.00 | 94 | 1004.4 |
| 20260507045833 | 52 | 254 | 10.4 | 13.0 | 0.00 | 0.00 | 0.00 | 95 | 1004.2 |
| 20260507045333 | 52 | 244 | 11.3 | 13.9 | 0.00 | 0.00 | 0.00 | 95 | 1004.3 |
| 20260507044833 | 52 | 230 | 7.8 | 12.2 | 0.00 | 0.00 | 0.00 | 95 | 1004.4 |
| 20260507044333 | 52 | 231 | 7.8 | 12.2 | 0.00 | 0.00 | 0.00 | 95 | 1004.7 |
| 20260507043833 | 53 | 239 | 9.6 | 14.8 | 0.00 | 0.00 | 0.00 | 95 | 1004.7 |
| 20260507043333 | 53 | 238 | 11.3 | 15.6 | 0.00 | 0.00 | 0.00 | 95 | 1004.6 |
| 20260507042833 | 53 | 233 | 9.6 | 14.8 | 0.00 | 0.00 | 0.00 | 95 | 1004.6 |
| 20260507042333 | 53 | 226 | 9.6 | 13.9 | 0.00 | 0.00 | 0.00 | 95 | 1004.5 |
| 20260507041833 | 53 | 237 | 9.6 | 12.2 | 0.00 | 0.00 | 0.00 | 95 | |
| 20260507041333 | 54 | 231 | 9.6 | 13.0 | 0.00 | 0.00 | 0.00 | 95 | 1004.5 |
| 20260507040833 | 54 | 225 | 7.8 | 13.0 | 0.00 | 0.00 | 0.00 | 94 | 1004.4 |
| 20260507040333 | 55 | 223 | 8.7 | 14.8 | 0.00 | 0.00 | 0.00 | 95 | 1004.3 |
| 20260507035833 | 54 | 214 | 7.8 | 12.2 | 0.00 | 0.00 | 0.00 | 95 | 1004.1 |
| 20260507035333 | 55 | 215 | 7.0 | 13.9 | 0.00 | 0.00 | 0.00 | 95 | |
| 20260507034833 | 55 | 212 | 9.6 | 15.6 | 0.00 | 0.00 | 0.00 | 96 | 1004.2 |
| 20260507034333 | 53 | 199 | 9.6 | 14.8 | 0.00 | 0.00 | 0.00 | 96 | |
| 20260507033833 | 52 | 173 | 7.0 | 11.3 | 0.00 | 0.00 | 0.00 | 95 | |
| 20260507033333 | 53 | 168 | 7.8 | 12.2 | 0.00 | 0.00 | 0.00 | 95 | 1003.9 |
| 20260507032833 | 52 | 163 | 7.0 | 11.3 | 0.00 | 0.00 | 0.00 | 95 | |
| 20260507032333 | 52 | 161 | 7.0 | 12.2 | 0.00 | 0.00 | 0.00 | 95 | 1003.8 |
| 20260507031833 | 52 | 160 | 7.8 | 13.0 | 0.00 | 0.00 | 0.00 | 95 | 1003.7 |
| 20260507031333 | 52 | 163 | 7.8 | 11.3 | 0.00 | 0.00 | 0.00 | 95 | 1003.7 |
| 20260507030833 | 53 | 157 | 7.8 | 13.9 | 0.00 | 0.00 | 0.00 | 94 | |
| 20260507030333 | 54 | 154 | 8.7 | 14.8 | 0.00 | 0.00 | 0.00 | 95 | 1003.6 |
| 20260507025833 | 54 | 153 | 9.6 | 17.4 | 0.00 | 0.00 | 0.00 | 95 | |
| 20260507025333 | 54 | 150 | 11.3 | 18.2 | 0.00 | 0.00 | 0.00 | 95 | 1003.7 |
| 20260507024833 | 54 | 149 | 9.6 | 16.5 | 0.00 | 0.00 | 0.00 | 95 | 1003.6 |
| 20260507024333 | 54 | 146 | 10.4 | 15.6 | 0.00 | 0.00 | 0.00 | 95 | 1003.7 |
| 20260507023833 | 54 | 156 | 9.6 | 15.6 | 0.00 | 0.00 | 0.00 | 95 | 1003.9 |
| 20260507023333 | 53 | 145 | 9.6 | 13.9 | 0.00 | 0.00 | 0.00 | 95 | |
| 20260507022833 | 53 | 147 | 10.4 | 15.6 | 0.00 | 0.00 | 0.00 | 95 | 1003.7 |
| 20260507022333 | 54 | 142 | 9.6 | 14.8 | 0.00 | 0.00 | 0.00 | 95 | 1003.9 |
| 20260507021832 | 53 | 150 | 10.4 | 15.6 | 0.00 | 0.00 | 0.00 | 95 | 1003.7 |
| 20260507021332 | 53 | 151 | 11.3 | 17.4 | 0.00 | 0.00 | 0.00 | 95 | |
| 20260507020833 | 52 | 154 | 9.6 | 16.5 | 0.00 | 0.00 | 0.00 | 95 | |
| 20260507020332 | 52 | 155 | 9.6 | 15.6 | 0.00 | 0.00 | 0.00 | 95 | 1004.0 |
| 20260507015832 | 52 | 154 | 10.4 | 18.2 | 0.00 | 0.00 | 0.00 | 95 | 1004.0 |
| 20260507015332 | 52 | 156 | 10.4 | 16.5 | 0.00 | 0.00 | 0.00 | 95 | 1003.9 |
| 20260507014833 | 52 | 152 | 9.6 | 17.4 | 0.00 | 0.00 | 0.00 | 94 | 1004.0 |
| 20260507014333 | 53 | 155 | 11.3 | 17.4 | 0.00 | 0.00 | 0.00 | 95 | 1003.9 |
| 20260507013833 | 53 | 150 | 11.3 | 21.7 | 0.00 | 0.00 | 0.00 | 95 | 1004.1 |
| 20260507013332 | 53 | 154 | 11.3 | 17.4 | 0.00 | 0.00 | 0.00 | 94 | 1004.1 |
| 20260507012832 | 53 | 151 | 10.4 | 17.4 | 0.00 | 0.00 | 0.00 | 95 | |
| 20260507012332 | 53 | 147 | 9.6 | 20.9 | 0.00 | 0.00 | 0.00 | 94 | 1004.2 |
| 20260507011832 | 53 | 151 | 11.3 | 22.6 | 0.00 | 0.00 | 0.00 | 94 | 1004.2 |
| 20260507011332 | 53 | 146 | 11.3 | 20.9 | 0.00 | 0.00 | 0.00 | 94 | 1004.2 |
| 20260507010833 | 53 | 143 | 12.2 | 20.9 | 0.00 | 0.00 | 0.00 | 94 | |
| 20260507010333 | 53 | 143 | 13.0 | 19.1 | 0.00 | 0.00 | 0.00 | 94 | 1004.2 |
| 20260507005832 | 53 | 141 | 12.2 | 22.6 | 0.00 | 0.00 | 0.00 | 94 | 1004.2 |